Flag for Chile Weather past 2 weeks in Viña del Mar, Chile

Now
50 °F

Clear.


Feels Like: 50 °F
Forecast: 52 / 59 °F
Wind: 1 mph from Northeast

Location: Pudahuel

Current Time: Aug 2, 2014 at 12:47:08 AM

Latest Report: Aug 2, 2014 at 12:00 AM


Visibility: 10 mi

Pressure: 30.01 "Hg

Humidity: 76%

Dew point: 43 °F

Location of Viña del MarLocation

Historic Weather in Viña del Mar — Graph

°F

Viña del Mar temperature yesterday

Maximum temperature yesterday: 75 °F (at 5:00 PM)
Minimum temperature yesterday: 43 °F (at 7:00 AM)
Average temperature yesterday: 57 °F

Past Weeks' High & Low Weather Summary

 TemperatureHumidityPressure
High75 °F (Aug 1, 5:00 PM)94% (Jul 31, 3:00 AM)30.36 "Hg (Jul 31, 3:00 AM)
Low30 °F (Jul 24, 8:00 AM)29% (Jul 25, 3:00 PM)29.92 "Hg (Jul 19, 3:00 PM)
Average50 °F71%30.10 "Hg
* Reported Midnight between Jul 17 and Jul 18 — Midnight between Aug 1 and Aug 2, Viña del Mar, Weather by CustomWeather, © 2014

Note: Actual official high and low records may vary slightly from our data, if they occured in-between our weather recording intervals... More about our weather records

Advertising

Viña del Mar weather history for previous 24 hours

 ConditionsComfort  
Time TempWeatherWind HumidityBarometerVisibility
12:00 AM
Aug 2
50 °FClear.1 mph76%30.01 "Hg10 mi
11:00 PM
Aug 1
52 °FClear.5 mph72%30.01 "Hg5 mi
10:00 PM59 °FClear.2 mph55%30.01 "Hg5 mi
9:00 PM61 °FClear.2 mph55%29.98 "Hg10 mi
8:00 PM63 °FClear.6 mph52%29.98 "Hg10 mi
7:00 PM66 °FPassing clouds.10 mph46%29.95 "HgN/A
6:00 PM70 °FClear.10 mph40%29.95 "Hg10 mi
5:00 PM75 °FSunny.2 mph29%29.95 "Hg10 mi
4:00 PM73 °FSunny.2 mph31%29.98 "Hg10 mi
3:00 PM73 °FSunny.3 mph31%29.98 "Hg10 mi
2:00 PM70 °FPassing clouds.5 mph35%30.01 "HgN/A
1:00 PM66 °FPassing clouds.5 mph40%30.04 "HgN/A
12:00 PM63 °FSunny.1 mph49%30.07 "Hg5 mi
11:00 AM57 °FSunny.No wind72%30.09 "Hg3 mi
10:00 AM52 °FSunny.2 mph82%30.09 "Hg2 mi
9:00 AM46 °FFog.2 mph87%30.09 "Hg1 mi
8:00 AM43 °FQuite cool.3 mph87%30.09 "Hg2 mi
7:00 AM43 °FQuite cool.No wind93%30.07 "Hg2 mi
6:00 AM45 °FFog.5 mph87%30.07 "Hg2 mi
5:00 AM46 °FFog.5 mph87%30.07 "Hg2 mi
4:00 AM46 °FFog.2 mph93%30.07 "Hg2 mi
3:00 AM50 °FCool.3 mph88%30.09 "Hg2 mi
2:00 AM46 °FCool.5 mph93%30.09 "Hg2 mi
1:00 AM48 °FFog.5 mph87%30.09 "Hg2 mi
12:00 AM50 °FFog.6 mph88%30.09 "Hg2 mi
Weather by CustomWeather, © 2014

See weather overviewHow to use our weather pages